Location: LDNL
(36.4545°S, 141.6685°E)
Time: 11:49:35
(UTC+10:00)

Explorer 7 - Pass Details

Date: 14 August 2022
Orbit: 482 x 668 km, 50.3° (Epoch: 26 September)

Event Time Altitude Azimuth Distance (km) Brightness Sun altitude
Rises 19:21:56 0° 268° (W) 3,017 12.3 -17.2°
Reaches altitude 10° 19:24:45 10° 253° (WSW) 2,095 10.8 -17.7°
Maximum altitude 19:28:35 23° 201° (SSW) 1,409 9.0 -18.5°
Enters shadow 19:31:19 14° 158° (SSE) 1,773 9.1 -19.0°
Drops below altitude 10° 19:32:20 10° 148° (SSE) 2,042 - -19.2°
Sets 19:35:03 0° 133° (SE) 2,921 - -19.8°
